Location: Observatorio del Centro Ecologico de Sonora
(29.0667°N, 110.9333°W)
Time: 00:39:55
(UTC-07:00)

ISS - Visible Passes

Search period start: 29 May 2016 00:00
Search period end: 08 June 2016 00:00
Orbit: 402 x 404 km, 51.6° (Epoch: 29 May)

Date Brightness Start Highest point End Pass type
(mag) Time Alt. Az. Time Alt. Az. Time Alt. Az.
29 May -2.7 03:58:13 10° NW 04:01:25 56° NE 04:04:37 10° SE visible
29 May 0.0 20:34:26 10° WNW 20:36:24 15° NW 20:38:23 10° N visible
30 May -1.0 03:05:51 10° NNW 03:08:36 25° NE 03:11:22 10° E visible
30 May -1.8 04:42:37 10° W 04:44:53 18° SW 04:47:09 10° S visible
30 May -0.9 19:40:37 10° WSW 19:43:30 28° NW 19:46:24 10° NNE visible
